Location: Dammartin
(48.9032°N, 1.6195°E)
Time: 13:33:06
(UTC+00:00)

YUBILEINY - Pass Details

Date: 06 December 2023
Orbit: 1479 x 1508 km, 82.5° (Epoch: 02 March)

Event Time Altitude Azimuth Distance (km) Brightness Sun altitude
Rises 20:36:09 0° 348° (NNW) 4,631 ? -44.6°
Reaches altitude 10° 20:39:04 10° 346° (NNW) 3,644 ? -45.0°
Enters shadow 20:43:43 35° 334° (NNW) 2,215 ? -45.8°
